Regional Weather Roundup
Issued by NWS

Home | Current Version | Previous Version | Graphics & Text | Print | Product List | Glossary On
Versions: 1 2 3 4 5 6 7 8 9 10 11 12 13 14 15 16 17 18 19 20 21 22 23 24 25 26 27 28 29 30 31 32 33 34 35 36 37 38 39 40 41 42 43 44 45 46 47 48 49 50
000
ASUS43 KLOT 300710
RWRIL

ILLINOIS REGIONAL WEATHER ROUNDUP
NATIONAL WEATHER SERVICE CHICAGO/ROMEOVILLE IL
100 AM CST FRI JAN 30 2015

NOTE: "FAIR" INDICATES FEW OR NO CLOUDS BELOW 12,000 FEET WITH NO
SIGNIFICANT WEATHER AND/OR OBSTRUCTIONS TO VISIBILITY.

* THESE STATIONS ARE NOT UNDER NWS QUALITY CONTROL. THEY ALSO MAY NOT
  REPORT WEATHER SUCH AS PRECIPITATION OR FOG.

ILZ001-002-007-009-015-016-024-300800-
NORTHWEST ILLINOIS

CITY           SKY/WX    TMP DP  RH WIND       PRES   REMARKS
MOLINE         CLEAR     26  15  63 NW14      30.45R WCI  14
STERLING*      CLEAR     27  16  63 NW13      30.41R WCI  16
SAVANNA*       MOCLDY    28  15  59 NW8       30.43R WCI  19
$$

ILZ003-004-008-010-011-017-018-300800-
NORTH CENTRAL ILLINOIS

CITY           SKY/WX    TMP DP  RH WIND       PRES   REMARKS
ROCKFORD       PTCLDY    28  14  55 NW12      30.39R WCI  18
FREEPORT*      CLOUDY    24  15  67 NW10      30.41R WCI  14
ROCHELLE*      CLOUDY    27  17  67 NW12      30.39R WCI  16
DE KALB*       PTCLDY    25  15  66 N14       30.36R WCI  13
PERU*          MOCLDY    28  21  74 NW13      30.40R WCI  18
$$

ILZ005-006-012>014-019>023-300800-
NORTHEAST ILLINOIS

CITY           SKY/WX    TMP DP  RH WIND       PRES   REMARKS
CHICAGO-OHARE  CLOUDY    28  14  55 N16       30.34R WCI  16
CHICAGO-MIDWAY FLURRIES  31  17  56 N20G25    30.34R WCI  19
AURORA         PTCLDY    28  16  60 NW16      30.35R WCI  16
LANSING*       FLURRIES  29  22  75 N10G24    30.32R WCI  20
JOLIET*        MOCLDY    29  17  58 N13G21    30.35R WCI  19
WAUKEGAN       CLOUDY    26   9  48 N12G21    30.35R WCI  16
DUPAGE AIRPORT FLURRIES  28  20  71 N16       30.34R WCI  16
KANKAKEE*      CLOUDY    32  22  65 NW13G18   30.33R WCI  22
WHEELING       CLOUDY    28  12  51 N16G25    30.36R WCI  16
MORRIS*        CLOUDY    31  21  66 N9G16     30.34R WCI  23
ROMEOVILLE*    PTCLDY    29  18  63 N14       30.34R WCI  18
NORTHERLY ISL    N/A     29  19  66 N15         N/A  WCI  18
$$

LMZ740>746-300800-
SOUTHERN LAKE MICHIGAN

STATION/POSITION SKY/WX   TEMP    WIND        PRES    VSBY  WAVE
                          AIR SEA DIR/SP/G                  HT/PER
                          (F)     (DEG/KT/KT) (MB)    (MI)  (FT/S)
WAUKEGAN HARBOR            27     360/ 14/ 23   N/A
HARRISON CRIB              29     350/ 28/ 32   N/A
BURNHAM HARBOR             29     360/ 18/ 22   N/A
CALUMET HARBOR                    340/ 16/ 24   N/A
MICHIGAN CITY              29     350/ 32/ 37   N/A
$$

ILZ025>027-034>036-040-047-049-050-058-095>099-300800-
WEST-CENTRAL ILLINOIS

CITY           SKY/WX    TMP DP  RH WIND       PRES   REMARKS
QUINCY         CLOUDY    29  20  69 NW14      30.48R WCI  18
GALESBURG*     CLOUDY    27  21  77 NW12      30.44R WCI  17
MACOMB*        CLOUDY    28  20  72 NW17      30.48R WCI  16
JACKSONVILLE*  CLOUDY    33  24  68 NW16      30.44R WCI  23
PITTSFIELD*    CLOUDY    31  23  71 NW14      30.48R WCI  21
$$

ILZ028>032-037-038-041>044-048-051>054-059>061-300800-
CENTRAL ILLINOIS

CITY           SKY/WX    TMP DP  RH WIND       PRES   REMARKS
PONTIAC        CLOUDY    32  25  74 NW21      30.37R WCI  20
BLOOMINGTON    CLOUDY    31  23  72 NW20      30.37R WCI  19
DECATUR        CLOUDY    33  21  61 NW20G30   30.38R WCI  21
PEORIA         CLOUDY    31  20  63 NW12G23   30.42R WCI  22
LACON*         CLOUDY    29  20  69 NW12G18   30.40R WCI  20
LINCOLN*       CLOUDY    33  21  63 NW12G21   30.42R WCI  24
SPRINGFIELD    CLOUDY    32  21  64 NW15      30.42R WCI  22
TAYLORVILLE    CLOUDY    32  25  74 NW17G24   30.41R WCI  21
$$

ILZ033-039-045-046-055>057-062-063-300800-
EAST-CENTRAL ILLINOIS

CITY           SKY/WX    TMP DP  RH WIND       PRES   REMARKS
CHAMPAIGN      CLOUDY    33  25  72 NW18      30.34R WCI  22
DANVILLE*      CLOUDY    32  27  81 NW14      30.28R WCI  22
RANTOUL*       CLOUDY    34  28  80 NW20G25   30.33R WCI  22
MATTOON        CLOUDY    33  23  66 NW17G29   30.35R WCI  22
PARIS*         CLOUDY    33  30  88 NW12      30.33R WCI  24
$$

ILZ079-100>102-300800-
SOUTHWEST ILLINOIS

CITY           SKY/WX    TMP DP  RH WIND       PRES   REMARKS
ALTON          CLOUDY    34  21  60 NW12G25   30.44R WCI  25
BELLEVILLE     CLOUDY    35  24  64 NW14      30.43R WCI  25
CAHOKIA*       CLOUDY    36  24  62 NW15      30.45R WCI  27
SPARTA*        CLOUDY    35  24  66 NW15G22   30.43F WCI  25
$$

ILZ064>066-069>071-074>076-080>082-084>086-088>090-092>094-300800-
SOUTH-CENTRAL ILLINOIS

CITY           SKY/WX    TMP DP  RH WIND       PRES   REMARKS
CARBONDALE     CLOUDY    36  26  67 NW8       30.43S WCI  30
CAIRO*         CLOUDY    40  29  64 N10       30.42S
EFFINGHAM*     CLOUDY    34  23  63 NW12G21   30.40R WCI  25
MARION         CLOUDY    36  27  69 N10       30.42S WCI  28
MT. VERNON     CLOUDY    34  21  60 N6        30.42R WCI  29
CENTRALIA*     CLOUDY    33  25  71 NW9       30.41S WCI  26
SALEM*         CLOUDY    36  25  64 NW17G24   30.41R WCI  25
METROPOLIS*    CLOUDY    37  28  71 NW15G21   30.41R WCI  28
$$

ILZ067-068-072-073-078-083-087-091-300800-
SOUTHEAST ILLINOIS

CITY           SKY/WX    TMP DP  RH WIND       PRES   REMARKS
LAWRENCEVILLE  CLOUDY    35  26  69 NW15      30.36R WCI  25
FLORA*         CLOUDY    34  26  71 NW9G21    30.40R WCI  27
FAIRFIELD*     CLOUDY    35  26  69 NW9       30.39S WCI  28
HARRISBURG*    CLOUDY    35  26  70 NW15G22   30.42S WCI  25
ROBINSON*      CLOUDY    34  28  80 NW12G18   30.36R WCI  25
CARMI*         CLOUDY    37  30  76 NW16G22   30.39R WCI  27
$$

ABBREVIATIONS USED IN REMARKS
   TC - TEMPERATURE IN CELSIUS
  WCI - WIND CHILL INDEX
   HX - HEAT INDEX
  VSB - VISIBILITY
$$



USA.gov is the U.S. government's official web portal to all federal, state and local government web resources and services.